Location: Brno
(49.2000°N, 16.6330°E)
Time: 01:08:15
(UTC+02:00)

Transit 4A - Pass Details

Date: 30 July 2021
Orbit: 870 x 974 km, 66.8° (Epoch: 26 September)

Event Time Altitude Azimuth Distance (km) Brightness Sun altitude
Rises 10:57:29 0° 317° (NW) 3,477 10.5 50.6°
Reaches altitude 10° 11:00:16 10° 306° (NW) 2,543 9.9 50.9°
Maximum altitude 11:05:09 28° 250° (WSW) 1,607 9.3 51.5°
Drops below altitude 10° 11:10:07 10° 193° (SSW) 2,575 10.6 52.1°
Sets 11:12:57 0° 182° (S) 3,529 11.3 52.4°
